Location: Unspecified
(31.9633°N, 0.0000°E)
Time: 02:55:07
(UTC+00:00)

Timation 2 - Visible Passes

Search period start: 04 April 2026 00:00
Search period end: 14 April 2026 00:00
Orbit: 890 x 923 km, 70.0° (Epoch: 29 March)

Date Brightness Start Highest point End Pass type
(mag) Time Alt. Az. Time Alt. Az. Time Alt. Az.
4 Apr 7.9 04:35:50 10° SSW 04:41:55 89° WNW 04:48:02 10° NNE visible
5 Apr 10.4 02:58:21 10° SE 03:01:30 15° E 03:04:39 10° ENE visible
5 Apr 7.9 04:40:25 10° SSW 04:46:25 64° WNW 04:52:28 10° NNE visible
6 Apr 9.9 03:02:22 13° SE 03:05:48 21° E 03:10:13 10° NE visible
6 Apr 8.2 04:45:36 12° SW 04:50:59 46° WNW 04:56:48 10° N visible
7 Apr 9.4 03:07:38 22° SE 03:10:08 30° ESE 03:15:20 10° NE visible
7 Apr 8.6 04:50:51 13° WSW 04:55:34 33° WNW 05:01:01 10° N visible
8 Apr 8.8 03:12:45 34° SE 03:14:31 43° ESE 03:20:12 10° NE visible
8 Apr 9.0 04:55:59 12° WSW 05:00:13 24° WNW 05:05:05 10° N visible
9 Apr 8.2 03:17:46 51° SSE 03:18:56 61° ESE 03:24:55 10° NNE visible
9 Apr 9.4 05:00:59 10° W 05:04:56 18° WNW 05:08:56 10° NNW visible
10 Apr 7.8 03:22:41 71° S 03:23:23 85° ESE 03:29:29 10° NNE visible
10 Apr 9.7 05:07:03 10° W 05:09:42 13° NW 05:12:20 10° NNW visible
11 Apr 10.4 01:44:19 12° E 01:44:19 12° E 01:45:41 10° ENE visible
11 Apr 7.7 03:27:32 68° W 03:27:52 70° WNW 03:33:58 10° NNE visible
12 Apr 10.1 01:49:05 17° E 01:49:05 17° E 01:51:29 10° ENE visible
12 Apr 8.1 03:32:17 50° WNW 03:32:25 50° WNW 03:38:19 10° N visible
13 Apr 9.8 01:53:47 22° ENE 01:53:47 22° ENE 01:56:40 10° NE visible
13 Apr 8.6 03:36:58 36° WNW 03:37:00 36° WNW 03:42:33 10° N visible
